Location: Les Salelles
(44.4192°N, 4.1044°E)
Time: 15:53:04
(UTC+00:00)

NOAA 12 - Pass Details

Date: 20 January 2021
Orbit: 796 x 814 km, 98.5° (Epoch: 26 February)

Event Time Altitude Azimuth Distance (km) Brightness Sun altitude
Rises 16:55:13 0° 160° (SSE) 3,288 7.3 -3.8°
Reaches altitude 10° 16:57:32 10° 159° (SSE) 2,361 6.6 -4.2°
Maximum altitude 17:02:45 79° 74° (ENE) 817 4.1 -5.0°
Drops below altitude 10° 17:07:59 10° 349° (N) 2,379 6.4 -5.9°
Sets 17:10:20 0° 348° (NNW) 3,314 7.2 -6.3°
